| time (UTC) | temp F | wind direction | speed knots | gust knots | rain 1hr in | rain 24hr in | rain mn in | humidity % | barometer mb |
| 20260903224606 | 95 | 65 | 0.0 | 1.7 | 0.00 | 0.00 | 0.00 | 53 | 1009.0 |
| 20260903223051 | 95 | 155 | 0.0 | 1.7 | 0.00 | 0.00 | 0.00 | 53 | 1009.0 |
| 20260903221546 | 96 | 148 | 0.0 | 2.6 | 0.00 | 0.00 | 0.00 | 51 | 1009.0 |
| 20260903220051 | 97 | 167 | 0.0 | 2.6 | 0.00 | 0.00 | 0.00 | 50 | 1008.9 |
| 20260903214541 | 97 | 101 | 0.0 | 0.9 | 0.00 | 0.00 | 0.00 | 51 | 1009.0 |
| 20260903213039 | 96 | 166 | 0.0 | 2.6 | 0.00 | 0.00 | 0.00 | 52 | 1009.2 |
| 20260903211555 | 94 | 151 | 0.0 | 0.9 | 0.00 | 0.00 | 0.00 | 54 | 1009.3 |
| 20260903210024 | 92 | 163 | 0.0 | 2.6 | 0.00 | 0.00 | 0.00 | 57 | 1009.5 |
| 20260903204520 | 92 | 159 | 0.0 | 0.9 | 0.00 | 0.00 | 0.00 | 57 | 1009.9 |
| 20260903203016 | 92 | 129 | 0.0 | 1.7 | 0.00 | 0.00 | 0.00 | 58 | 1009.9 |
| 20260903201511 | 93 | 168 | 0.0 | 3.5 | 0.00 | 0.00 | 0.00 | 57 | 1010.1 |
| 20260903200007 | 93 | 67 | 0.0 | 0.9 | 0.00 | 0.00 | 0.00 | 57 | 1010.1 |
| 20260903194502 | 94 | 203 | 0.0 | 1.7 | 0.00 | 0.00 | 0.00 | 56 | 1010.3 |
| 20260903193058 | 93 | 194 | 0.0 | 1.7 | 0.00 | 0.00 | 0.00 | 57 | 1010.4 |
| 20260903191553 | 92 | 60 | 0.0 | 2.6 | 0.00 | 0.00 | 0.00 | 58 | 1010.5 |
| 20260903190049 | 91 | 210 | 0.0 | 2.6 | 0.00 | 0.00 | 0.00 | 58 | 1010.8 |
| 20260903184545 | 90 | 160 | 0.0 | 2.6 | 0.00 | 0.00 | 0.00 | 58 | 1011.1 |
| 20260903183041 | 89 | 134 | 0.0 | 3.5 | 0.00 | 0.00 | 0.00 | 57 | 1011.3 |
| 20260903181535 | 90 | 146 | 0.0 | 2.6 | 0.00 | 0.00 | 0.00 | 58 | 1011.4 |
| 20260903180033 | 91 | 148 | 0.0 | 3.5 | 0.00 | 0.00 | 0.00 | 58 | 1011.5 |
| 20260903174544 | 89 | 162 | 0.0 | 2.6 | 0.00 | 0.00 | 0.00 | 57 | 1011.6 |
| 20260903173026 | 89 | 150 | 0.0 | 2.6 | 0.00 | 0.00 | 0.00 | 55 | 1011.9 |
| 20260903171518 | 88 | 139 | 0.0 | 1.7 | 0.00 | 0.00 | 0.00 | 53 | 1011.9 |
| 20260903170014 | 87 | 160 | 0.0 | 1.7 | 0.00 | 0.00 | 0.00 | 48 | 1012.0 |
| 20260903164509 | 86 | 161 | 0.0 | 1.7 | 0.00 | 0.00 | 0.00 | 47 | 1011.9 |
| 20260903163005 | 86 | 155 | 0.0 | 1.7 | 0.00 | 0.00 | 0.00 | 44 | 1012.0 |
| 20260903161600 | 86 | 151 | 0.0 | 0.9 | 0.00 | 0.00 | 0.00 | 42 | 1012.1 |
| 20260903160056 | 85 | 278 | 0.0 | 0.9 | 0.00 | 0.00 | 0.00 | 39 | 1012.1 |
| 20260903154556 | 84 | 49 | 0.0 | 0.9 | 0.00 | 0.00 | 0.00 | 28 | 1012.2 |
| 20260903153053 | 83 | 153 | 0.0 | 0.9 | 0.00 | 0.00 | 0.00 | 16 | 1012.1 |
| 20260903151550 | 82 | 167 | 0.0 | 0.9 | 0.00 | 0.00 | 0.00 | 8 | 1012.1 |
| 20260903150039 | 81 | 106 | 0.0 | 0.0 | 0.00 | 0.00 | 0.00 | 3 | 1012.0 |
| 20260903144535 | 81 | 155 | 0.0 | 0.0 | 0.00 | 0.00 | 0.00 | 5 | 1012.3 |
| 20260903143029 | 81 | 158 | 0.0 | 0.9 | 0.00 | 0.00 | 0.00 | 7 | 1012.4 |
| 20260903141524 | 81 | 167 | 0.0 | 0.9 | 0.00 | 0.00 | 0.00 | 5 | 1012.1 |
| 20260903140021 | 80 | 168 | 0.0 | 0.9 | 0.00 | 0.00 | 0.00 | 1 | 1012.1 |
| 20260903134517 | 79 | 108 | 0.0 | 0.0 | 0.00 | 0.00 | 0.00 | 1 | 1012.1 |
| 20260903133012 | 79 | 152 | 0.0 | 0.9 | 0.00 | 0.00 | 0.00 | 1 | 1012.0 |
| 20260903131511 | 78 | 143 | 0.0 | 0.0 | 0.00 | 0.00 | 0.00 | 1 | 1011.9 |
| 20260903130008 | 78 | 102 | 0.0 | 0.9 | 0.00 | 0.00 | 0.00 | 1 | 1011.9 |
| 20260903124504 | 78 | 101 | 0.0 | 0.9 | 0.00 | 0.00 | 0.00 | 1 | 1012.0 |
| 20260903123059 | 78 | 50 | 0.0 | 0.0 | 0.00 | 0.00 | 0.00 | 1 | 1011.7 |
| 20260903121554 | 77 | 49 | 0.0 | 0.9 | 0.00 | 0.00 | 0.00 | 1 | 1011.7 |
| 20260903120049 | 78 | 113 | 0.0 | 0.0 | 0.00 | 0.00 | 0.00 | 1 | 1011.5 |
| 20260903114546 | 78 | 113 | 0.0 | 0.0 | 0.00 | 0.00 | 0.00 | 3 | 1011.4 |
| 20260903113043 | 78 | 112 | 0.0 | 0.0 | 0.00 | 0.00 | 0.00 | 6 | 1011.4 |
| 20260903111614 | 78 | 111 | 0.0 | 0.9 | 0.00 | 0.00 | 0.00 | 8 | 1011.5 |
| 20260903110043 | 77 | 113 | 0.0 | 0.0 | 0.00 | 0.00 | 0.00 | 8 | 1011.3 |
| 20260903104553 | 78 | 113 | 0.0 | 0.0 | 0.00 | 0.00 | 0.00 | 9 | 1011.2 |
| 20260903103041 | 78 | 113 | 0.0 | 0.0 | 0.00 | 0.00 | 0.00 | 9 | 1011.2 |
| 20260903101545 | 78 | 113 | 0.0 | 0.0 | 0.00 | 0.00 | 0.00 | 8 | 1011.1 |
| 20260903100039 | 78 | 113 | 0.0 | 0.0 | 0.00 | 0.00 | 0.00 | 9 | 1011.1 |
| 20260903094539 | 77 | 113 | 0.0 | 0.0 | 0.00 | 0.00 | 0.00 | 11 | 1011.1 |
| 20260903093041 | 77 | 113 | 0.0 | 0.0 | 0.00 | 0.00 | 0.00 | 14 | 1011.1 |
| 20260903091534 | 78 | 113 | 0.0 | 0.0 | 0.00 | 0.00 | 0.00 | 21 | 1011.0 |
| 20260903090033 | 78 | 113 | 0.0 | 0.0 | 0.00 | 0.00 | 0.00 | 22 | 1011.0 |
| 20260903084535 | 78 | 113 | 0.0 | 0.0 | 0.00 | 0.00 | 0.00 | 25 | 1011.2 |
| 20260903083029 | 78 | 113 | 0.0 | 0.0 | 0.00 | 0.00 | 0.00 | 28 | 1011.2 |
| 20260903081527 | 79 | 113 | 0.0 | 0.0 | 0.00 | 0.00 | 0.00 | 34 | 1011.0 |
| 20260903080024 | 79 | 113 | 0.0 | 0.0 | 0.00 | 0.00 | 0.00 | 36 | 1011.0 |
| 20260903074523 | 79 | 113 | 0.0 | 0.0 | 0.00 | 0.00 | 0.00 | 38 | 1011.1 |
| 20260903073035 | 79 | 113 | 0.0 | 0.0 | 0.00 | 0.00 | 0.00 | 39 | 1011.2 |
| 20260903071521 | 79 | 113 | 0.0 | 0.0 | 0.00 | 0.00 | 0.00 | 41 | 1011.2 |
| 20260903070023 | 80 | 113 | 0.0 | 0.0 | 0.00 | 0.00 | 0.00 | 46 | 1011.1 |
| 20260903064517 | 80 | 113 | 0.0 | 0.0 | 0.00 | 0.00 | 0.00 | 48 | 1011.0 |
| 20260903063013 | 81 | 113 | 0.0 | 0.9 | 0.00 | 0.00 | 0.00 | 49 | 1011.4 |
| 20260903061528 | 81 | 113 | 0.0 | 0.0 | 0.00 | 0.00 | 0.00 | 52 | 1011.4 |
| 20260903060008 | 81 | 139 | 0.0 | 0.0 | 0.00 | 0.00 | 0.00 | 54 | 1011.6 |
| 20260903054507 | 82 | 91 | 0.0 | 0.9 | 0.00 | 0.00 | 0.00 | 57 | 1011.7 |
| 20260903053005 | 82 | 188 | 0.0 | 0.9 | 0.00 | 0.00 | 0.00 | 58 | 1011.8 |
| 20260903051502 | 83 | 56 | 0.0 | 0.9 | 0.00 | 0.00 | 0.00 | 59 | 1011.7 |
| 20260903050106 | 83 | 143 | 0.0 | 0.9 | 0.00 | 0.00 | 0.00 | 59 | 1011.5 |
| 20260903044608 | 84 | 148 | 0.0 | 0.9 | 0.00 | 0.00 | 0.00 | 60 | 1011.4 |
| 20260903043103 | 84 | 106 | 0.0 | 0.0 | 0.00 | 0.00 | 0.00 | 60 | 1011.4 |
| 20260903041600 | 84 | 134 | 0.0 | 0.0 | 0.00 | 0.00 | 0.00 | 60 | 1011.3 |
| 20260903040107 | 85 | 134 | 0.0 | 0.9 | 0.00 | 0.00 | 0.00 | 60 | 1011.6 |
| 20260903034558 | 86 | 65 | 0.0 | 0.9 | 0.00 | 0.00 | 0.00 | 59 | 1011.4 |
| 20260903033057 | 86 | 103 | 0.0 | 0.9 | 0.00 | 0.00 | 0.00 | 59 | 1011.2 |
| 20260903031600 | 87 | 146 | 0.0 | 0.9 | 0.00 | 0.00 | 0.00 | 58 | 1011.2 |
| 20260903030112 | 88 | 51 | 0.0 | 1.7 | 0.00 | 0.00 | 0.00 | 57 | 1011.1 |
| 20260903024556 | 88 | 145 | 0.0 | 0.9 | 0.00 | 0.00 | 0.00 | 56 | 1010.9 |
| 20260903023056 | 89 | 92 | 0.0 | 0.9 | 0.00 | 0.00 | 0.00 | 54 | 1010.7 |
| 20260903021555 | 90 | 115 | 0.0 | 0.9 | 0.00 | 0.00 | 0.00 | 52 | 1010.5 |
| 20260903020055 | 90 | 141 | 0.0 | 0.9 | 0.00 | 0.00 | 0.00 | 52 | 1010.2 |
| 20260903014600 | 91 | 159 | 0.0 | 0.9 | 0.00 | 0.00 | 0.00 | 52 | 1010.1 |
| 20260903013053 | 92 | 148 | 0.0 | 0.9 | 0.00 | 0.00 | 0.00 | 51 | 1009.9 |
| 20260903011606 | 92 | 121 | 0.0 | 0.9 | 0.00 | 0.00 | 0.00 | 50 | 1009.9 |
| 20260903010111 | 93 | 203 | 0.0 | 0.9 | 0.00 | 0.00 | 0.00 | 49 | 1009.6 |
| 20260903004551 | 94 | 233 | 0.0 | 0.9 | 0.00 | 0.00 | 0.00 | 48 | 1009.6 |
| 20260903003053 | 94 | 92 | 0.0 | 0.9 | 0.00 | 0.00 | 0.00 | 45 | 1009.6 |
| 20260903001550 | 95 | 117 | 0.0 | 1.7 | 0.00 | 0.00 | 0.00 | 45 | 1009.5 |
| 20260903000050 | 96 | 56 | 0.0 | 1.7 | 0.00 | 0.00 | 0.00 | 44 | 1009.5 |
| 20260902234554 | 98 | 85 | 0.0 | 0.0 | 0.00 | 0.00 | 0.00 | 39 | 1009.2 |
| 20260902233049 | 99 | 129 | 0.0 | 0.9 | 0.00 | 0.00 | 0.00 | 37 | 1009.2 |
| 20260902231606 | 100 | 155 | 0.0 | 0.9 | 0.00 | 0.00 | 0.00 | 37 | 1009.1 |